Simultaneous Nadir Overpasses (SNOs) Predictions

Prediction of SNOs between AQUA and GOES-15 Satellite Orbit:

Table of predicted SNOs for the next 14.0 days since TLE Epoch: 3/23/2012
Index Date Time (AQUA) AQUA Lat,Lon GOES-15 Lat,Lon Distance(km) Time Diff (sec)
1 03/23/2012 22:41:23 -0.34,-136.39 -0.06,-135.13 143.75 80
2 03/25/2012 22:29:15 0.27,-133.45 -0.06,-135.08 185.24 80
3 03/26/2012 10:50:31 0.79,-138.61 0.06,-135.04 405.95 80
4 03/28/2012 10:38:22 0.22,-135.65 0.06,-134.97 77.76 80
5 03/30/2012 10:26:15 -0.43,-132.71 0.06,-134.90 249.95 80
6 03/30/2012 22:47:39 -0.67,-137.90 -0.06,-134.91 340.13 80
7 04/01/2012 22:35:30 -0.06,-134.95 -0.06,-134.83 13.10 80
8 04/03/2012 22:23:21 0.55,-132.00 -0.06,-134.75 313.81 80
9 04/04/2012 10:44:37 0.56,-137.15 0.06,-134.71 277.64 80
10 04/06/2012 10:32:27 -0.02,-134.19 0.05,-134.62 48.33 80




NCC Satellite Simultaneous Nadir Overpasses (SNOs) Prediction Service
